Time,TemperatureF,DewpointF,PressureIn,WindDirection,WindDirectionDegrees,WindSpeedMPH,WindSpeedGustMPH,Humidity,HourlyPrecipIn,Conditions,Clouds,dailyrainin,SolarRadiationWatts/m^2,SoftwareType,DateUTC
2013-06-04 08:52:00,74.0,64.0,-100.00,NNW,338,3.0,7.0,71,-99.99,,,-99.99,538.000000,,2013-06-04 18:52:00,
2013-06-04 09:02:00,74.0,64.0,-100.00,NNW,338,3.0,7.0,71,-99.99,,,-99.99,538.000000,,2013-06-04 19:02:00,
2013-06-04 09:12:00,74.0,64.0,-100.00,NNW,338,3.0,7.0,71,-99.99,,,-99.99,538.000000,,2013-06-04 19:12:00,
2013-06-04 09:22:00,74.0,64.0,-100.00,NNW,338,3.0,7.0,71,-99.99,,,-99.99,538.000000,,2013-06-04 19:22:00,
2013-06-04 09:32:00,74.0,64.0,-100.00,NNW,338,3.0,7.0,71,-99.99,,,-99.99,538.000000,,2013-06-04 19:32:00,
2013-06-04 09:52:00,74.0,63.0,-100.00,North,352,4.0,11.0,68,0.00,,,-99.99,505.000000,,2013-06-04 19:52:00,
2013-06-04 10:02:00,74.0,63.0,-100.00,North,352,4.0,11.0,68,0.00,,,-99.99,505.000000,,2013-06-04 20:02:00,
2013-06-04 10:12:00,74.0,63.0,-100.00,North,352,4.0,11.0,68,0.00,,,-99.99,505.000000,,2013-06-04 20:12:00,
2013-06-04 10:22:00,74.0,63.0,-100.00,North,352,4.0,11.0,68,0.00,,,-99.99,505.000000,,2013-06-04 20:22:00,
2013-06-04 10:53:00,78.0,67.0,-100.00,WNW,286,5.0,12.0,69,0.00,,,-99.99,762.000000,,2013-06-04 20:53:00,
2013-06-04 11:02:00,78.0,67.0,-100.00,WNW,286,5.0,12.0,69,0.00,,,-99.99,762.000000,,2013-06-04 21:02:00,
2013-06-04 11:12:00,78.0,67.0,-100.00,WNW,286,5.0,12.0,69,0.00,,,-99.99,762.000000,,2013-06-04 21:12:00,
2013-06-04 11:22:00,78.0,67.0,-100.00,WNW,286,5.0,12.0,69,0.00,,,-99.99,762.000000,,2013-06-04 21:22:00,
2013-06-04 11:33:00,78.0,67.0,-100.00,WNW,286,5.0,12.0,69,0.00,,,-99.99,762.000000,,2013-06-04 21:33:00,
2013-06-04 11:53:00,77.0,61.0,-100.00,NNW,334,7.0,14.0,58,0.00,,,-99.99,783.000000,,2013-06-04 21:53:00,
2013-06-04 12:02:00,77.0,61.0,-100.00,NNW,334,7.0,14.0,58,0.00,,,-99.99,783.000000,,2013-06-04 22:02:00,
2013-06-04 12:12:00,77.0,61.0,-100.00,NNW,334,7.0,14.0,58,0.00,,,-99.99,783.000000,,2013-06-04 22:12:00,
2013-06-04 12:22:00,77.0,61.0,-100.00,NNW,334,7.0,14.0,58,0.00,,,-99.99,783.000000,,2013-06-04 22:22:00,
2013-06-04 12:32:00,77.0,61.0,-100.00,NNW,334,7.0,14.0,58,0.00,,,-99.99,783.000000,,2013-06-04 22:32:00,
2013-06-04 12:52:00,76.0,63.0,-100.00,WNW,284,6.0,21.0,65,0.00,,,-99.99,671.000000,,2013-06-04 22:52:00,
2013-06-04 13:02:00,76.0,63.0,-100.00,WNW,284,6.0,21.0,65,0.00,,,-99.99,671.000000,,2013-06-04 23:02:00,
2013-06-04 13:12:00,76.0,63.0,-100.00,WNW,284,6.0,21.0,65,0.00,,,-99.99,671.000000,,2013-06-04 23:12:00,
2013-06-04 13:22:00,76.0,63.0,-100.00,WNW,284,6.0,21.0,65,0.00,,,-99.99,671.000000,,2013-06-04 23:22:00,
2013-06-04 13:32:00,76.0,63.0,-100.00,WNW,284,6.0,21.0,65,0.00,,,-99.99,671.000000,,2013-06-04 23:32:00,
2013-06-04 14:02:00,77.0,62.0,-100.00,North,11,12.0,23.0,60,0.00,,,-99.99,908.000000,,2013-06-05 00:02:00,
2013-06-04 14:12:00,77.0,62.0,-100.00,North,11,12.0,23.0,60,0.00,,,-99.99,908.000000,,2013-06-05 00:12:00,
2013-06-04 14:22:00,77.0,62.0,-100.00,North,11,12.0,23.0,60,0.00,,,-99.99,908.000000,,2013-06-05 00:22:00,
2013-06-04 14:32:00,77.0,62.0,-100.00,North,11,12.0,23.0,60,0.00,,,-99.99,908.000000,,2013-06-05 00:32:00,
2013-06-04 14:52:00,79.0,63.0,-100.00,NE,35,12.0,25.0,59,0.00,,,-99.99,1076.000000,,2013-06-05 00:52:00,
2013-06-04 15:02:00,79.0,63.0,-100.00,NE,35,12.0,25.0,59,0.00,,,-99.99,1076.000000,,2013-06-05 01:02:00,
2013-06-04 15:12:00,79.0,63.0,-100.00,NE,35,12.0,25.0,59,0.00,,,-99.99,1076.000000,,2013-06-05 01:12:00,
2013-06-04 15:22:00,79.0,63.0,-100.00,NE,35,12.0,25.0,59,0.00,,,-99.99,1076.000000,,2013-06-05 01:22:00,
2013-06-04 15:32:00,79.0,63.0,-100.00,NE,35,12.0,25.0,59,0.00,,,-99.99,1076.000000,,2013-06-05 01:32:00,
2013-06-04 15:52:00,75.0,62.0,-100.00,North,350,13.0,26.0,63,0.00,,,-99.99,700.000000,,2013-06-05 01:52:00,
2013-06-04 16:02:00,75.0,62.0,-100.00,North,350,13.0,26.0,63,0.00,,,-99.99,700.000000,,2013-06-05 02:02:00,
2013-06-04 16:12:00,75.0,62.0,-100.00,North,350,13.0,26.0,63,0.00,,,-99.99,700.000000,,2013-06-05 02:12:00,
2013-06-04 16:22:00,75.0,62.0,-100.00,North,350,13.0,26.0,63,0.00,,,-99.99,700.000000,,2013-06-05 02:22:00,
2013-06-04 16:32:00,75.0,62.0,-100.00,North,350,13.0,26.0,63,0.00,,,-99.99,700.000000,,2013-06-05 02:32:00,
2013-06-04 16:52:00,74.0,61.0,-100.00,NE,48,8.0,21.0,64,0.00,,,-99.99,131.000000,,2013-06-05 02:52:00,
2013-06-04 17:02:00,74.0,61.0,-100.00,NE,48,8.0,21.0,64,0.00,,,-99.99,131.000000,,2013-06-05 03:02:00,
2013-06-04 17:12:00,74.0,61.0,-100.00,NE,48,8.0,21.0,64,0.00,,,-99.99,131.000000,,2013-06-05 03:12:00,
2013-06-04 17:22:00,74.0,61.0,-100.00,NE,48,8.0,21.0,64,0.00,,,-99.99,131.000000,,2013-06-05 03:22:00,
2013-06-04 17:32:00,74.0,61.0,-100.00,NE,48,8.0,21.0,64,0.00,,,-99.99,131.000000,,2013-06-05 03:32:00,
2013-06-04 17:53:00,72.0,60.0,-100.00,NE,47,12.0,21.0,66,0.00,,,-99.99,103.000000,,2013-06-05 03:53:00,
2013-06-04 18:02:00,72.0,60.0,-100.00,NE,47,12.0,21.0,66,0.00,,,-99.99,103.000000,,2013-06-05 04:02:00,
2013-06-04 18:13:00,72.0,60.0,-100.00,NE,47,12.0,21.0,66,0.00,,,-99.99,103.000000,,2013-06-05 04:13:00,
2013-06-04 18:22:00,72.0,60.0,-100.00,NE,47,12.0,21.0,66,0.00,,,-99.99,103.000000,,2013-06-05 04:22:00,
2013-06-04 18:32:00,72.0,60.0,-100.00,NE,47,12.0,21.0,66,0.00,,,-99.99,103.000000,,2013-06-05 04:32:00,
2013-06-04 18:53:00,70.0,58.0,-100.00,NE,54,10.0,19.0,66,0.00,,,-99.99,73.000000,,2013-06-05 04:53:00,
2013-06-04 19:02:00,70.0,58.0,-100.00,NE,54,10.0,19.0,66,0.00,,,-99.99,73.000000,,2013-06-05 05:02:00,
2013-06-04 19:12:00,70.0,58.0,-100.00,NE,54,10.0,19.0,66,0.00,,,-99.99,73.000000,,2013-06-05 05:12:00,
2013-06-04 19:22:00,70.0,58.0,-100.00,NE,54,10.0,19.0,66,0.00,,,-99.99,73.000000,,2013-06-05 05:22:00,
2013-06-04 19:32:00,70.0,58.0,-100.00,NE,54,10.0,19.0,66,0.00,,,-99.99,73.000000,,2013-06-05 05:32:00,
2013-06-04 19:52:00,67.0,57.0,-100.00,NE,50,9.0,19.0,71,0.00,,,-99.99,14.000000,,2013-06-05 05:52:00,
2013-06-04 20:02:00,67.0,57.0,-100.00,NE,50,9.0,19.0,71,0.00,,,-99.99,14.000000,,2013-06-05 06:02:00,
2013-06-04 20:12:00,67.0,57.0,-100.00,NE,50,9.0,19.0,71,0.00,,,-99.99,14.000000,,2013-06-05 06:12:00,
2013-06-04 20:22:00,67.0,57.0,-100.00,NE,50,9.0,19.0,71,0.00,,,-99.99,14.000000,,2013-06-05 06:22:00,
2013-06-04 20:32:00,67.0,57.0,-100.00,NE,50,9.0,19.0,71,0.00,,,-99.99,14.000000,,2013-06-05 06:32:00,
2013-06-04 20:52:00,63.0,56.0,-100.00,NNE,30,8.0,14.0,78,0.00,,,-99.99,0.000000,,2013-06-05 06:52:00,
2013-06-04 21:02:00,63.0,56.0,-100.00,NNE,30,8.0,14.0,78,0.00,,,-99.99,0.000000,,2013-06-05 07:02:00,
2013-06-04 21:12:00,63.0,56.0,-100.00,NNE,30,8.0,14.0,78,0.00,,,-99.99,0.000000,,2013-06-05 07:12:00,
2013-06-04 21:22:00,63.0,56.0,-100.00,NNE,30,8.0,14.0,78,0.00,,,-99.99,0.000000,,2013-06-05 07:22:00,
2013-06-04 21:32:00,63.0,56.0,-100.00,NNE,30,8.0,14.0,78,0.00,,,-99.99,0.000000,,2013-06-05 07:32:00,
2013-06-04 22:02:00,62.0,57.0,-100.00,South,172,3.0,7.0,83,0.00,,,-99.99,0.000000,,2013-06-05 08:02:00,
2013-06-04 22:12:00,62.0,57.0,-100.00,South,172,3.0,7.0,83,0.00,,,-99.99,0.000000,,2013-06-05 08:12:00,
2013-06-04 22:22:00,62.0,57.0,-100.00,South,172,3.0,7.0,83,0.00,,,-99.99,0.000000,,2013-06-05 08:22:00,
2013-06-04 22:32:00,62.0,57.0,-100.00,South,172,3.0,7.0,83,0.00,,,-99.99,0.000000,,2013-06-05 08:32:00,
2013-06-04 22:52:00,61.0,56.0,-100.00,SE,129,3.0,6.0,85,0.00,,,-99.99,0.000000,,2013-06-05 08:52:00,
2013-06-04 23:02:00,61.0,56.0,-100.00,SE,129,3.0,6.0,85,0.00,,,-99.99,0.000000,,2013-06-05 09:02:00,
2013-06-04 23:12:00,61.0,56.0,-100.00,SE,129,3.0,6.0,85,0.00,,,-99.99,0.000000,,2013-06-05 09:12:00,
2013-06-04 23:22:00,61.0,56.0,-100.00,SE,129,3.0,6.0,85,0.00,,,-99.99,0.000000,,2013-06-05 09:22:00,
2013-06-04 23:32:00,61.0,56.0,-100.00,SE,129,3.0,6.0,85,0.00,,,-99.99,0.000000,,2013-06-05 09:32:00,
2013-06-04 23:53:00,60.0,54.0,-100.00,SE,137,4.0,9.0,82,0.00,,,-99.99,0.000000,,2013-06-05 09:53:00,